| time (UTC) | temp C | wind direction | speed KPH | gust KPH | rain 1hr cm | rain 24hr cm | rain mn cm | humidity % | barometer mb |
| 20260505210056 | 26 | 245 | 0.0 | 22.5 | 0.00 | 0.03 | 0.03 | 38 | 1008.0 |
| 20260505205552 | 26 | 0 | 4.8 | 22.5 | 0.00 | 0.03 | 0.03 | 35 | 1007.8 |
| 20260505205052 | 26 | 177 | 4.8 | 17.7 | 0.00 | 0.03 | 0.03 | 36 | 1007.8 |
| 20260505204556 | 26 | 0 | 0.0 | 17.7 | 0.00 | 0.03 | 0.03 | 34 | 1007.8 |
| 20260505204057 | 26 | 192 | 4.8 | 24.1 | 0.00 | 0.03 | 0.03 | 35 | 1007.9 |
| 20260505203554 | 26 | 0 | 4.8 | 24.1 | 0.00 | 0.03 | 0.03 | 36 | 1007.9 |
| 20260505203114 | 27 | 190 | 1.6 | 16.1 | 0.00 | 0.03 | 0.03 | 37 | 1008.0 |
| 20260505202554 | 27 | 196 | 1.6 | 29.0 | 0.00 | 0.03 | 0.03 | 37 | 1007.9 |
| 20260505202054 | 26 | 0 | 0.0 | 29.0 | 0.00 | 0.03 | 0.03 | 38 | 1008.0 |
| 20260505201555 | 26 | 227 | 4.8 | 29.0 | 0.00 | 0.03 | 0.03 | 36 | 1008.0 |
| 20260505201053 | 27 | 177 | 3.2 | 20.9 | 0.00 | 0.03 | 0.03 | 35 | 1007.9 |
| 20260505200553 | 26 | 0 | 3.2 | 19.3 | 0.00 | 0.03 | 0.03 | 37 | 1007.9 |
| 20260505200055 | 26 | 221 | 4.8 | 17.7 | 0.00 | 0.03 | 0.03 | 38 | 1008.0 |
| 20260505195552 | 26 | 176 | 6.4 | 25.7 | 0.00 | 0.03 | 0.03 | 37 | 1008.1 |
| 20260505195052 | 27 | 209 | 4.8 | 25.7 | 0.00 | 0.03 | 0.03 | 40 | 1008.0 |
| 20260505194554 | 27 | 171 | 3.2 | 14.5 | 0.00 | 0.03 | 0.03 | 38 | 1008.1 |
| 20260505194053 | 27 | 0 | 0.0 | 14.5 | 0.00 | 0.03 | 0.03 | 44 | 1008.2 |
| 20260505193553 | 26 | 163 | 1.6 | 24.1 | 0.00 | 0.03 | 0.03 | 45 | 1008.2 |
| 20260505193051 | 26 | 177 | 1.6 | 24.1 | 0.00 | 0.03 | 0.03 | 43 | 1008.3 |
| 20260505192557 | 27 | 179 | 1.6 | 20.9 | 0.00 | 0.03 | 0.03 | 42 | 1008.3 |
| 20260505192054 | 27 | 0 | 0.0 | 25.7 | 0.00 | 0.03 | 0.03 | 45 | 1008.3 |
| 20260505191556 | 27 | 200 | 4.8 | 25.7 | 0.00 | 0.03 | 0.03 | 42 | 1008.4 |
| 20260505191053 | 27 | 186 | 4.8 | 19.3 | 0.00 | 0.03 | 0.03 | 42 | 1008.5 |
| 20260505190553 | 27 | 200 | 1.6 | 16.1 | 0.00 | 0.03 | 0.03 | 42 | 1008.5 |
| 20260505190056 | 27 | 0 | 1.6 | 16.1 | 0.00 | 0.03 | 0.03 | 42 | 1008.6 |
| 20260505185553 | 27 | 145 | 0.0 | 25.7 | 0.00 | 0.03 | 0.03 | 45 | 1008.7 |
| 20260505185053 | 27 | 205 | 3.2 | 25.7 | 0.00 | 0.03 | 0.03 | 45 | 1008.7 |
| 20260505184554 | 27 | 188 | 4.8 | 25.7 | 0.00 | 0.03 | 0.03 | 41 | 1008.7 |
| 20260505184054 | 27 | 207 | 3.2 | 22.5 | 0.00 | 0.03 | 0.03 | 44 | 1008.7 |
| 20260505183553 | 27 | 0 | 4.8 | 20.9 | 0.00 | 0.03 | 0.03 | 44 | 1008.8 |
| 20260505183055 | 26 | 224 | 4.8 | 17.7 | 0.00 | 0.03 | 0.03 | 44 | 1008.9 |
| 20260505182555 | 26 | 0 | 1.6 | 16.1 | 0.00 | 0.03 | 0.03 | 46 | 1008.9 |
| 20260505182054 | 26 | 0 | 0.0 | 14.5 | 0.00 | 0.03 | 0.03 | 47 | 1009.1 |
| 20260505181555 | 26 | 179 | 1.6 | 16.1 | 0.00 | 0.03 | 0.03 | 46 | 1009.2 |
| 20260505181052 | 27 | 173 | 1.6 | 16.1 | 0.00 | 0.03 | 0.03 | 44 | 1009.1 |
| 20260505180553 | 27 | 190 | 3.2 | 11.3 | 0.00 | 0.03 | 0.03 | 42 | 1009.1 |
| 20260505175553 | 27 | 0 | 1.6 | 16.1 | 0.00 | 0.03 | 0.03 | 43 | 1009.3 |
| 20260505175055 | 27 | 161 | 1.6 | 19.3 | 0.00 | 0.03 | 0.03 | 43 | 1009.3 |
| 20260505174556 | 26 | 0 | 0.0 | 19.3 | 0.00 | 0.03 | 0.03 | 46 | 1009.3 |
| 20260505174053 | 26 | 0 | 3.2 | 20.9 | 0.00 | 0.03 | 0.03 | 41 | 1009.4 |
| 20260505173552 | 26 | 185 | 8.0 | 29.0 | 0.00 | 0.03 | 0.03 | 43 | 1009.2 |
| 20260505173056 | 26 | 128 | 4.8 | 29.0 | 0.00 | 0.03 | 0.03 | 44 | 1009.3 |
| 20260505172556 | 26 | 0 | 0.0 | 9.7 | 0.00 | 0.03 | 0.03 | 47 | 1009.4 |
| 20260505172052 | 26 | 0 | 0.0 | 16.1 | 0.00 | 0.03 | 0.03 | 48 | 1009.4 |
| 20260505171558 | 26 | 196 | 0.0 | 19.3 | 0.00 | 0.03 | 0.03 | 48 | 1009.6 |
| 20260505171053 | 26 | 0 | 1.6 | 19.3 | 0.00 | 0.03 | 0.03 | 47 | 1009.6 |
| 20260505170553 | 26 | 153 | 0.0 | 9.7 | 0.00 | 0.03 | 0.03 | 50 | 1009.5 |
| 20260505170055 | 26 | 0 | 0.0 | 12.9 | 0.00 | 0.03 | 0.03 | 49 | 1009.8 |
| 20260505165552 | 26 | 0 | 0.0 | 12.9 | 0.00 | 0.03 | 0.03 | 46 | 1010.0 |
| 20260505165052 | 26 | 0 | 0.0 | 11.3 | 0.00 | 0.03 | 0.03 | 49 | 1009.9 |
| 20260505164556 | 26 | 177 | 0.0 | 11.3 | 0.00 | 0.03 | 0.03 | 53 | 1010.0 |
| 20260505164055 | 26 | 0 | 0.0 | 8.0 | 0.00 | 0.03 | 0.03 | 52 | 1010.1 |
| 20260505163554 | 26 | 0 | 0.0 | 8.0 | 0.00 | 0.03 | 0.03 | 50 | 1010.1 |
| 20260505163052 | 26 | 0 | 0.0 | 8.0 | 0.00 | 0.03 | 0.03 | 48 | 1010.1 |
| 20260505162553 | 25 | 0 | 0.0 | 6.4 | 0.00 | 0.03 | 0.03 | 57 | 1010.2 |
| 20260505162053 | 25 | 0 | 0.0 | 11.3 | 0.00 | 0.03 | 0.03 | 56 | 1010.3 |
| 20260505161552 | 25 | 0 | 0.0 | 11.3 | 0.00 | 0.03 | 0.03 | 55 | 1010.3 |
| 20260505161053 | 25 | 0 | 0.0 | 6.4 | 0.00 | 0.03 | 0.03 | 52 | 1010.3 |
| 20260505160552 | 25 | 0 | 0.0 | 6.4 | 0.00 | 0.03 | 0.03 | 52 | 1010.4 |
| 20260505153057 | 24 | 0 | 0.0 | 0.0 | 0.00 | 0.03 | 0.03 | 55 | 1010.8 |
| 20260505152556 | 23 | 0 | 0.0 | 0.0 | 0.00 | 0.03 | 0.03 | 54 | 1010.8 |
| 20260505152053 | 23 | 0 | 0.0 | 0.0 | 0.00 | 0.03 | 0.03 | 56 | 1010.9 |
| 20260505151553 | 23 | 0 | 0.0 | 3.2 | 0.00 | 0.03 | 0.03 | 58 | 1010.8 |
| 20260505151053 | 23 | 0 | 0.0 | 3.2 | 0.00 | 0.03 | 0.03 | 56 | 1010.9 |
| 20260505150553 | 23 | 0 | 0.0 | 0.0 | 0.00 | 0.03 | 0.03 | 58 | 1011.0 |
| 20260505140553 | 21 | 0 | 0.0 | 3.2 | 0.00 | 0.03 | 0.03 | 64 | 1011.5 |
| 20260505140109 | 20 | 0 | 0.0 | 3.2 | 0.00 | 0.03 | 0.03 | 66 | 1011.4 |
| 20260505124554 | 17 | 0 | 0.0 | 3.2 | 0.00 | 0.03 | 0.03 | 75 | 1011.4 |
| 20260505124053 | 17 | 0 | 0.0 | 6.4 | 0.00 | 0.03 | 0.03 | 75 | 1011.4 |
| 20260505123552 | 17 | 0 | 0.0 | 6.4 | 0.00 | 0.03 | 0.03 | 77 | 1011.4 |
| 20260505123101 | 16 | 0 | 0.0 | 6.4 | 0.00 | 0.03 | 0.03 | 76 | 1011.4 |
| 20260505122552 | 16 | 0 | 0.0 | 1.6 | 0.00 | 0.03 | 0.03 | 79 | 1011.4 |
| 20260505122052 | 16 | 0 | 0.0 | 1.6 | 0.00 | 0.03 | 0.03 | 80 | 1011.4 |
| 20260505121555 | 15 | 0 | 0.0 | 1.6 | 0.00 | 0.03 | 0.03 | 83 | 1011.3 |
| 20260505121053 | 15 | 0 | 0.0 | 0.0 | 0.00 | 0.03 | 0.03 | 88 | 1011.2 |
| 20260505120552 | 15 | 0 | 0.0 | 0.0 | 0.00 | 0.03 | 0.03 | 89 | 1011.2 |
| 20260505120107 | 14 | 0 | 0.0 | 0.0 | 0.00 | 0.03 | 0.03 | 92 | 1011.1 |
| 20260505115552 | 14 | 0 | 0.0 | 0.0 | 0.00 | 0.03 | 0.03 | 93 | 1011.1 |
| 20260505115053 | 13 | 0 | 0.0 | 0.0 | 0.00 | 0.03 | 0.03 | 95 | 1011.0 |
| 20260505114558 | 13 | 0 | 0.0 | 0.0 | 0.00 | 0.03 | 0.03 | 96 | 1011.1 |
| 20260505114054 | 12 | 0 | 0.0 | 0.0 | 0.00 | 0.03 | 0.03 | 95 | 1011.2 |
| 20260505113557 | 12 | 0 | 0.0 | 0.0 | 0.00 | 0.03 | 0.03 | 95 | 1011.2 |
| 20260505113105 | 12 | 0 | 0.0 | 0.0 | 0.00 | 0.03 | 0.03 | 96 | 1011.1 |
| 20260505112633 | 12 | 0 | 0.0 | 0.0 | 0.00 | 0.03 | 0.03 | 95 | 1011.2 |
| 20260505112052 | 11 | 0 | 0.0 | 0.0 | 0.00 | 0.03 | 0.03 | 95 | 1011.2 |
| 20260505111559 | 11 | 0 | 0.0 | 0.0 | 0.00 | 0.03 | 0.03 | 94 | 1011.3 |
| 20260505111052 | 11 | 0 | 0.0 | 0.0 | 0.00 | 0.03 | 0.03 | 94 | 1011.3 |
| 20260505110553 | 11 | 0 | 0.0 | 0.0 | 0.00 | 0.03 | 0.03 | 93 | 1011.1 |
| 20260505102052 | 12 | 0 | 0.0 | 0.0 | 0.03 | 0.03 | 0.03 | 91 | 1010.8 |
| 20260505101555 | 12 | 0 | 0.0 | 0.0 | 0.03 | 0.03 | 0.03 | 90 | 1011.0 |
| 20260505101052 | 12 | 0 | 0.0 | 0.0 | 0.03 | 0.03 | 0.03 | 90 | 1011.0 |
| 20260505100555 | 12 | 0 | 0.0 | 0.0 | 0.03 | 0.03 | 0.03 | 89 | 1011.0 |
| 20260505100055 | 12 | 0 | 0.0 | 0.0 | 0.03 | 0.03 | 0.03 | 89 | 1010.9 |
| 20260505095553 | 12 | 0 | 0.0 | 0.0 | 0.03 | 0.03 | 0.03 | 88 | 1010.8 |
| 20260505095055 | 12 | 0 | 0.0 | 0.0 | 0.03 | 0.03 | 0.03 | 87 | 1010.8 |
| 20260505094602 | 12 | 0 | 0.0 | 0.0 | 0.00 | 0.00 | 0.00 | 83 | 1010.8 |
| 20260505094053 | 12 | 0 | 0.0 | 0.0 | 0.00 | 0.00 | 0.00 | 79 | 1011.0 |
| 20260505093557 | 12 | 0 | 0.0 | 0.0 | 0.00 | 0.00 | 0.00 | 78 | 1010.9 |
| 20260505093057 | 12 | 0 | 0.0 | 0.0 | 0.00 | 0.00 | 0.00 | 78 | 1010.9 |
| 20260505092554 | 13 | 0 | 0.0 | 0.0 | 0.00 | 0.00 | 0.00 | 77 | 1010.9 |
| 20260505092053 | 13 | 0 | 0.0 | 0.0 | 0.00 | 0.00 | 0.00 | 76 | 1010.8 |
| 20260505091552 | 13 | 0 | 0.0 | 0.0 | 0.00 | 0.00 | 0.00 | 76 | 1010.6 |
| 20260505091055 | 13 | 0 | 0.0 | 0.0 | 0.00 | 0.00 | 0.00 | 76 | 1010.3 |
| 20260505090553 | 13 | 0 | 0.0 | 0.0 | 0.00 | 0.00 | 0.00 | 76 | 1010.3 |
| 20260505090058 | 13 | 0 | 0.0 | 0.0 | 0.00 | 0.00 | 0.00 | 76 | 1010.1 |
| 20260505085553 | 13 | 0 | 0.0 | 0.0 | 0.00 | 0.00 | 0.00 | 77 | 1010.2 |
| 20260505085053 | 13 | 0 | 0.0 | 0.0 | 0.00 | 0.00 | 0.00 | 77 | 1010.2 |
| 20260505084604 | 12 | 0 | 0.0 | 0.0 | 0.00 | 0.00 | 0.00 | 78 | 1010.2 |
| 20260505084053 | 12 | 0 | 0.0 | 0.0 | 0.00 | 0.00 | 0.00 | 77 | 1010.1 |
| 20260505083554 | 12 | 0 | 0.0 | 0.0 | 0.00 | 0.00 | 0.00 | 78 | 1010.1 |
| 20260505083105 | 12 | 0 | 0.0 | 0.0 | 0.00 | 0.00 | 0.00 | 78 | 1010.2 |
| 20260505082552 | 12 | 0 | 0.0 | 0.0 | 0.00 | 0.00 | 0.00 | 78 | 1010.2 |
| 20260505082052 | 12 | 0 | 0.0 | 0.0 | 0.00 | 0.00 | 0.00 | 78 | 1010.3 |
| 20260505081554 | 12 | 0 | 0.0 | 0.0 | 0.00 | 0.00 | 0.00 | 78 | 1010.3 |
| 20260505081052 | 12 | 0 | 0.0 | 0.0 | 0.00 | 0.00 | 0.00 | 78 | 1010.3 |
| 20260505080552 | 12 | 0 | 0.0 | 0.0 | 0.00 | 0.00 | 0.00 | 78 | 1010.3 |
| 20260505080054 | 13 | 0 | 0.0 | 0.0 | 0.00 | 0.00 | 0.00 | 77 | 1010.4 |
| 20260505075552 | 13 | 0 | 0.0 | 0.0 | 0.00 | 0.00 | 0.00 | 76 | 1010.4 |
| 20260505075052 | 13 | 0 | 0.0 | 0.0 | 0.00 | 0.00 | 0.00 | 76 | 1010.4 |
| 20260505074552 | 13 | 0 | 0.0 | 0.0 | 0.00 | 0.00 | 0.00 | 75 | 1010.3 |
| 20260505074052 | 13 | 0 | 0.0 | 0.0 | 0.00 | 0.00 | 0.00 | 74 | 1010.3 |
| 20260505073552 | 13 | 0 | 0.0 | 0.0 | 0.00 | 0.00 | 0.00 | 73 | 1010.2 |
| 20260505073057 | 13 | 0 | 0.0 | 0.0 | 0.00 | 0.00 | 0.00 | 73 | 1010.2 |
| 20260505072555 | 13 | 0 | 0.0 | 0.0 | 0.00 | 0.00 | 0.00 | 73 | 1010.1 |
| 20260505072054 | 13 | 0 | 0.0 | 0.0 | 0.00 | 0.00 | 0.00 | 73 | 1010.1 |
| 20260505071600 | 13 | 0 | 0.0 | 0.0 | 0.00 | 0.00 | 0.00 | 73 | 1010.2 |
| 20260505071052 | 13 | 0 | 0.0 | 0.0 | 0.00 | 0.00 | 0.00 | 74 | 1010.2 |
| 20260505070553 | 13 | 0 | 0.0 | 0.0 | 0.00 | 0.00 | 0.00 | 74 | 1010.2 |
| 20260505070104 | 13 | 0 | 0.0 | 0.0 | 0.00 | 0.00 | 0.00 | 74 | 1010.2 |
| 20260505065553 | 12 | 0 | 0.0 | 0.0 | 0.00 | 0.00 | 0.00 | 75 | 1010.2 |
| 20260505065052 | 12 | 0 | 0.0 | 0.0 | 0.00 | 0.00 | 0.00 | 76 | 1010.2 |
| 20260505064557 | 12 | 0 | 0.0 | 0.0 | 0.00 | 0.00 | 0.00 | 76 | 1010.3 |
| 20260505064053 | 12 | 0 | 0.0 | 0.0 | 0.00 | 0.00 | 0.00 | 77 | 1010.4 |
| 20260505063553 | 12 | 0 | 0.0 | 0.0 | 0.00 | 0.00 | 0.00 | 77 | 1010.4 |
| 20260505063054 | 12 | 0 | 0.0 | 0.0 | 0.00 | 0.00 | 0.00 | 77 | 1010.3 |
| 20260505062555 | 12 | 0 | 0.0 | 0.0 | 0.00 | 0.00 | 0.00 | 77 | 1010.4 |
| 20260505062056 | 12 | 0 | 0.0 | 0.0 | 0.00 | 0.00 | 0.00 | 77 | 1010.3 |
| 20260505061613 | 12 | 0 | 0.0 | 0.0 | 0.00 | 0.00 | 0.00 | 77 | 1010.3 |
| 20260505061053 | 12 | 0 | 0.0 | 0.0 | 0.00 | 0.00 | 0.00 | 76 | 1010.3 |
| 20260505060553 | 12 | 0 | 0.0 | 0.0 | 0.00 | 0.00 | 0.00 | 76 | 1010.3 |
| 20260505055553 | 12 | 0 | 0.0 | 0.0 | 0.00 | 0.00 | 0.00 | 75 | 1010.3 |
| 20260505055053 | 12 | 0 | 0.0 | 0.0 | 0.00 | 0.00 | 0.00 | 75 | 1010.3 |
| 20260505054559 | 12 | 0 | 0.0 | 0.0 | 0.00 | 0.00 | 0.00 | 74 | 1010.4 |
| 20260505054053 | 12 | 0 | 0.0 | 0.0 | 0.00 | 0.00 | 0.00 | 74 | 1010.5 |
| 20260505053554 | 12 | 0 | 0.0 | 0.0 | 0.00 | 0.00 | 0.00 | 74 | 1010.4 |
| 20260505053055 | 12 | 0 | 0.0 | 0.0 | 0.00 | 0.00 | 0.00 | 73 | 1010.5 |
| 20260505052553 | 12 | 0 | 0.0 | 0.0 | 0.00 | 0.00 | 0.00 | 73 | 1010.4 |
| 20260505052053 | 12 | 0 | 0.0 | 0.0 | 0.00 | 0.00 | 0.00 | 72 | 1010.5 |
| 20260505051558 | 12 | 0 | 0.0 | 0.0 | 0.00 | 0.00 | 0.00 | 72 | 1010.6 |
| 20260505051052 | 12 | 0 | 0.0 | 0.0 | 0.00 | 0.00 | 0.00 | 71 | 1010.6 |
| 20260505050551 | 12 | 0 | 0.0 | 0.0 | 0.00 | 0.00 | 0.00 | 71 | 1010.6 |
| 20260505041601 | 12 | 0 | 0.0 | 0.0 | 0.00 | 0.00 | 0.00 | 68 | 1010.7 |
| 20260505041048 | 12 | 0 | 0.0 | 0.0 | 0.00 | 0.00 | 0.00 | 68 | 1010.7 |
| 20260505040548 | 13 | 0 | 0.0 | 0.0 | 0.00 | 0.00 | 0.00 | 67 | 1010.6 |
| 20260505035551 | 13 | 0 | 0.0 | 0.0 | 0.00 | 0.00 | 0.00 | 65 | 1010.7 |
| 20260505035050 | 13 | 0 | 0.0 | 0.0 | 0.00 | 0.00 | 0.00 | 64 | 1010.6 |
| 20260505034559 | 13 | 0 | 0.0 | 0.0 | 0.00 | 0.00 | 0.00 | 64 | 1010.6 |
| 20260505034051 | 13 | 0 | 0.0 | 0.0 | 0.00 | 0.00 | 0.00 | 64 | 1010.5 |
| 20260505033548 | 14 | 0 | 0.0 | 0.0 | 0.00 | 0.00 | 0.00 | 62 | 1010.4 |
| 20260505033102 | 15 | 0 | 0.0 | 0.0 | 0.00 | 0.00 | 0.00 | 62 | 1010.6 |
| 20260505032552 | 15 | 0 | 0.0 | 0.0 | 0.00 | 0.00 | 0.00 | 60 | 1010.6 |
| 20260505032051 | 15 | 0 | 0.0 | 0.0 | 0.00 | 0.00 | 0.00 | 59 | 1010.7 |
| 20260505031559 | 15 | 0 | 0.0 | 0.0 | 0.00 | 0.00 | 0.00 | 58 | 1010.7 |
| 20260505031047 | 16 | 0 | 0.0 | 0.0 | 0.00 | 0.00 | 0.00 | 56 | 1010.8 |
| 20260505030555 | 16 | 0 | 0.0 | 0.0 | 0.00 | 0.00 | 0.00 | 56 | 1010.7 |
| 20260505030058 | 16 | 0 | 0.0 | 0.0 | 0.00 | 0.00 | 0.00 | 56 | 1010.7 |
| 20260505025551 | 16 | 0 | 0.0 | 1.6 | 0.00 | 0.00 | 0.00 | 56 | 1010.7 |
| 20260505025051 | 16 | 0 | 0.0 | 6.4 | 0.00 | 0.00 | 0.00 | 55 | 1010.8 |
| 20260505024557 | 16 | 0 | 0.0 | 8.0 | 0.00 | 0.00 | 0.00 | 54 | 1010.7 |
| 20260505024051 | 16 | 0 | 0.0 | 8.0 | 0.00 | 0.00 | 0.00 | 53 | 1010.7 |
| 20260505023551 | 16 | 0 | 0.0 | 6.4 | 0.00 | 0.00 | 0.00 | 54 | 1010.6 |
| 20260505023054 | 16 | 188 | 0.0 | 6.4 | 0.00 | 0.00 | 0.00 | 53 | 1010.7 |
| 20260505022551 | 16 | 0 | 0.0 | 14.5 | 0.00 | 0.00 | 0.00 | 54 | 1010.8 |
| 20260505022050 | 16 | 0 | 0.0 | 14.5 | 0.00 | 0.00 | 0.00 | 53 | 1010.7 |
| 20260505021601 | 16 | 0 | 0.0 | 6.4 | 0.00 | 0.00 | 0.00 | 55 | 1010.8 |
| 20260505021048 | 15 | 0 | 0.0 | 11.3 | 0.00 | 0.00 | 0.00 | 57 | 1010.8 |
| 20260505020548 | 15 | 0 | 0.0 | 11.3 | 0.00 | 0.00 | 0.00 | 58 | 1010.7 |
| 20260505020055 | 15 | 0 | 0.0 | 0.0 | 0.00 | 0.00 | 0.00 | 59 | 1010.8 |
| 20260505015551 | 15 | 0 | 0.0 | 0.0 | 0.00 | 0.00 | 0.00 | 58 | 1010.7 |
| 20260505015051 | 15 | 0 | 0.0 | 0.0 | 0.00 | 0.00 | 0.00 | 58 | 1010.7 |
| 20260505014553 | 14 | 0 | 0.0 | 0.0 | 0.00 | 0.00 | 0.00 | 60 | 1010.6 |
| 20260505014051 | 14 | 0 | 0.0 | 0.0 | 0.00 | 0.00 | 0.00 | 59 | 1010.6 |
| 20260505013551 | 14 | 0 | 0.0 | 0.0 | 0.00 | 0.00 | 0.00 | 61 | 1010.5 |
| 20260505013055 | 14 | 0 | 0.0 | 0.0 | 0.00 | 0.00 | 0.00 | 60 | 1010.5 |
| 20260505012553 | 14 | 0 | 0.0 | 0.0 | 0.00 | 0.00 | 0.00 | 61 | 1010.6 |
| 20260505012051 | 14 | 0 | 0.0 | 0.0 | 0.00 | 0.00 | 0.00 | 61 | 1010.6 |
| 20260505011600 | 14 | 0 | 0.0 | 0.0 | 0.00 | 0.00 | 0.00 | 61 | 1010.5 |
| 20260505011048 | 14 | 0 | 0.0 | 0.0 | 0.00 | 0.00 | 0.00 | 62 | 1010.4 |
| 20260505010553 | 14 | 0 | 0.0 | 0.0 | 0.00 | 0.00 | 0.00 | 62 | 1010.4 |
| 20260505010107 | 14 | 0 | 0.0 | 0.0 | 0.00 | 0.00 | 0.00 | 61 | 1010.3 |
| 20260505005551 | 14 | 0 | 0.0 | 0.0 | 0.00 | 0.00 | 0.00 | 60 | 1010.2 |
| 20260505005048 | 15 | 0 | 0.0 | 0.0 | 0.00 | 0.00 | 0.00 | 61 | 1010.1 |
| 20260505004557 | 15 | 0 | 0.0 | 0.0 | 0.00 | 0.00 | 0.00 | 60 | 1010.1 |
| 20260505004050 | 15 | 0 | 0.0 | 0.0 | 0.00 | 0.00 | 0.00 | 60 | 1010.1 |
| 20260505003550 | 15 | 0 | 0.0 | 0.0 | 0.00 | 0.00 | 0.00 | 58 | 1010.1 |
| 20260505003054 | 15 | 0 | 0.0 | 0.0 | 0.00 | 0.00 | 0.00 | 58 | 1010.1 |
| 20260505002547 | 16 | 0 | 0.0 | 0.0 | 0.00 | 0.00 | 0.00 | 57 | 1010.0 |
| 20260505002052 | 16 | 0 | 0.0 | 0.0 | 0.00 | 0.00 | 0.00 | 57 | 1009.9 |
| 20260505001555 | 16 | 0 | 0.0 | 0.0 | 0.00 | 0.00 | 0.00 | 53 | 1009.9 |
| 20260505001051 | 17 | 0 | 0.0 | 0.0 | 0.00 | 0.00 | 0.00 | 54 | 1009.9 |
| 20260505000551 | 17 | 0 | 0.0 | 0.0 | 0.00 | 0.00 | 0.00 | 54 | 1009.8 |
| 20260505000100 | 17 | 0 | 0.0 | 1.6 | 0.00 | 0.00 | 0.00 | 53 | 1009.8 |
| 20260504235549 | 17 | 0 | 0.0 | 1.6 | 0.00 | 0.00 | 0.00 | 52 | 1009.7 |
| 20260504235050 | 17 | 0 | 0.0 | 0.0 | 0.00 | 0.00 | 0.00 | 52 | 1009.7 |
| 20260504234606 | 18 | 0 | 0.0 | 0.0 | 0.00 | 0.00 | 0.00 | 51 | 1009.6 |
| 20260504234050 | 18 | 0 | 0.0 | 1.6 | 0.00 | 0.00 | 0.00 | 49 | 1009.5 |
| 20260504233551 | 18 | 0 | 0.0 | 1.6 | 0.00 | 0.00 | 0.00 | 49 | 1009.5 |
| 20260504233058 | 18 | 0 | 0.0 | 3.2 | 0.00 | 0.00 | 0.00 | 48 | 1009.4 |
| 20260504232552 | 18 | 0 | 0.0 | 6.4 | 0.00 | 0.00 | 0.00 | 48 | 1009.4 |
| 20260504232051 | 18 | 0 | 0.0 | 6.4 | 0.00 | 0.00 | 0.00 | 49 | 1009.3 |
| 20260504231554 | 19 | 0 | 0.0 | 4.8 | 0.00 | 0.00 | 0.00 | 47 | 1009.2 |
| 20260504231051 | 19 | 0 | 0.0 | 8.0 | 0.00 | 0.00 | 0.00 | 47 | 1009.2 |
| 20260504230551 | 19 | 0 | 0.0 | 8.0 | 0.00 | 0.00 | 0.00 | 46 | 1009.1 |
| 20260504230055 | 19 | 225 | 0.0 | 4.8 | 0.00 | 0.00 | 0.00 | 47 | 1009.1 |
| 20260504225549 | 19 | 0 | 0.0 | 9.7 | 0.00 | 0.00 | 0.00 | 46 | 1009.0 |
| 20260504225054 | 19 | 0 | 0.0 | 9.7 | 0.00 | 0.00 | 0.00 | 46 | 1008.9 |
| 20260504224602 | 19 | 201 | 0.0 | 1.6 | 0.00 | 0.00 | 0.00 | 48 | 1008.8 |
| 20260504224052 | 20 | 0 | 0.0 | 1.6 | 0.00 | 0.00 | 0.00 | 48 | 1008.9 |
| 20260504223551 | 20 | 0 | 0.0 | 1.6 | 0.00 | 0.00 | 0.00 | 48 | 1008.9 |
| 20260504223104 | 20 | 0 | 0.0 | 1.6 | 0.00 | 0.00 | 0.00 | 47 | 1008.9 |
| 20260504222552 | 20 | 0 | 0.0 | 1.6 | 0.00 | 0.00 | 0.00 | 45 | 1009.0 |
| 20260504222051 | 20 | 0 | 0.0 | 12.9 | 0.00 | 0.00 | 0.00 | 44 | 1009.0 |
| 20260504221559 | 20 | 0 | 0.0 | 12.9 | 0.00 | 0.00 | 0.00 | 45 | 1009.0 |
| 20260504221052 | 20 | 209 | 0.0 | 12.9 | 0.00 | 0.00 | 0.00 | 42 | 1009.0 |
| 20260504220552 | 20 | 0 | 0.0 | 6.4 | 0.00 | 0.00 | 0.00 | 44 | 1009.0 |
| 20260504215552 | 20 | 0 | 0.0 | 6.4 | 0.00 | 0.00 | 0.00 | 42 | 1009.1 |
| 20260504215050 | 21 | 0 | 0.0 | 6.4 | 0.00 | 0.00 | 0.00 | 43 | 1009.1 |
| 20260504214559 | 21 | 0 | 0.0 | 6.4 | 0.00 | 0.00 | 0.00 | 43 | 1009.1 |
| 20260504214048 | 21 | 0 | 0.0 | 8.0 | 0.00 | 0.00 | 0.00 | 44 | 1009.2 |
| 20260504213548 | 21 | 0 | 0.0 | 8.0 | 0.00 | 0.00 | 0.00 | 43 | 1009.1 |
| 20260504213110 | 21 | 0 | 0.0 | 1.6 | 0.00 | 0.00 | 0.00 | 41 | 1009.2 |
| 20260504212551 | 21 | 0 | 0.0 | 9.7 | 0.00 | 0.00 | 0.00 | 42 | 1009.1 |
| 20260504212048 | 21 | 0 | 0.0 | 9.7 | 0.00 | 0.00 | 0.00 | 42 | 1009.2 |
| 20260504211558 | 21 | 182 | 0.0 | 12.9 | 0.00 | 0.00 | 0.00 | 43 | 1009.2 |
| 20260504211052 | 21 | 0 | 0.0 | 12.9 | 0.00 | 0.00 | 0.00 | 43 | 1009.2 |
| 20260504210551 | 22 | 41 | 0.0 | 8.0 | 0.00 | 0.00 | 0.00 | 41 | 1009.3 |